Location: Kennington
(51.1500°N, 0.8833°E)
Time: 11:27:15
(UTC+00:00)

Cosmos 2297 Rocket - Pass Details

Date: 21 September 2020
Orbit: 838 x 845 km, 71.0° (Epoch: 30 October)

Event Time Altitude Azimuth Distance (km) Brightness Sun altitude
Rises 01:35:04 0° 329° (NNW) 3,415 5.7 -33.6°
Reaches altitude 10° 01:37:32 10° 328° (NNW) 2,476 4.9 -33.4°
Enters shadow 01:39:33 23° 326° (NW) 1,733 3.9 -33.3°
